Regional Weather Roundup
Issued by NWS

Home | Current Version | Previous Version | Text Only | Print | Product List | Glossary Off
Versions: 1 2 3 4 5 6 7 8 9 10 11 12 13 14 15 16 17 18 19 20 21 22 23 24 25 26 27 28 29 30 31 32 33 34 35 36 37 38 39 40 41 42 43 44 45 46 47 48 49 50

000
ASUS43 KLOT 031900
RWRIL

ILLINOIS REGIONAL WEATHER ROUNDUP
NATIONAL WEATHER SERVICE CHICAGO/ROMEOVILLE IL
200 PM CDT WED JUN 03 2015

NOTE: "FAIR" INDICATES FEW OR NO CLOUDS BELOW 12,000 FEET WITH NO
SIGNIFICANT WEATHER AND/OR OBSTRUCTIONS TO VISIBILITY.

* THESE STATIONS ARE NOT UNDER NWS QUALITY CONTROL. THEY ALSO MAY NOT
  REPORT WEATHER SUCH AS PRECIPITATION OR FOG.

ILZ001-002-007-009-015-016-024-032000-
NORTHWEST ILLINOIS

CITY           SKY/WX    TMP DP  RH WIND       PRES   REMARKS
MOLINE         CLOUDY    75  59  57 S12       29.95F
STERLING*      PTSUNNY   77  59  53 S8        29.98F
$$

ILZ003-004-008-010-011-017-018-032000-
NORTH CENTRAL ILLINOIS

CITY           SKY/WX    TMP DP  RH WIND       PRES   REMARKS
ROCKFORD       PTSUNNY   77  56  48 S13G20    30.00F
FREEPORT*      PTSUNNY   74  58  56 S13G22    30.00S
$$

ILZ005-006-012>014-019>023-032000-
NORTHEAST ILLINOIS

CITY           SKY/WX    TMP DP  RH WIND       PRES   REMARKS
CHICAGO-OHARE  PTSUNNY   73  54  51 S9        30.02F
CHICAGO-MIDWAY PTSUNNY   75  52  44 S10       30.02F
AURORA         MOSUNNY   76  56  49 VRB6      30.01F
LANSING*       SUNNY     73  51  44 SE8       30.03F
WAUKEGAN       SUNNY     67  53  61 E10       30.03F
DUPAGE AIRPORT SUNNY     74  55  51 VRB7      30.01F
WHEELING       SUNNY     74  53  48 SE8       30.03F
NORTHERLY ISL    N/A     62  54  74 NE3         N/A
$$

LMZ740>746-032000-
SOUTHERN LAKE MICHIGAN

STATION/POSITION SKY/WX   TEMP    WIND        PRES    VSBY  WAVE
                          AIR SEA DIR/SP/G                  HT/PER
                          (F)     (DEG/KT/KT) (MB)    (MI)  (FT/S)
SOUTHERN BUOY              50 39  140/  4/  6 1018.3F         0
HARRISON CRIB              60      90/ 13/ 14   N/A
BURNHAM HARBOR             60      70/  6/  9   N/A
CALUMET HARBOR             60      50/  8/  9   N/A
BURNS HARBOR                       10/  6/ 11 1017.9F
MICHIGAN CITY              61     350/  9/ 10   N/A
MICHIGAN CITY 6N           58 58   20/  6/  8   N/A           0
ST. JOSEPH                 59 58   30/  6/  6   N/A           0
$$

ILZ025>027-034>036-040-047-049-050-058-095>099-032000-
WEST-CENTRAL ILLINOIS

CITY           SKY/WX    TMP DP  RH WIND       PRES   REMARKS
QUINCY         CLOUDY    70  60  70 S10       30.00F
MACOMB*        PTSUNNY   73  59  61 S12       30.01F
$$

ILZ028>032-037-038-041>044-048-051>054-059>061-032000-
CENTRAL ILLINOIS

CITY           SKY/WX    TMP DP  RH WIND       PRES   REMARKS
DECATUR        PTSUNNY   74  59  59 SW6       30.04F
PEORIA         MOSUNNY   77  58  51 S15       30.00F
LINCOLN*       SUNNY     75  58  56 S12       30.00F
SPRINGFIELD    MOSUNNY   76  59  55 S13       30.02F
TAYLORVILLE    NOT AVBL
$$

ILZ033-039-045-046-055>057-062-063-032000-
EAST-CENTRAL ILLINOIS

CITY           SKY/WX    TMP DP  RH WIND       PRES   REMARKS
CHAMPAIGN      MOSUNNY   75  56  51 MISG      30.04S
MATTOON        PTSUNNY   70  58  65 SE7       30.04S
$$

ILZ079-100>102-032000-
SOUTHWEST ILLINOIS

CITY           SKY/WX    TMP DP  RH WIND       PRES   REMARKS
ALTON          PTSUNNY   72  64  78 S8        30.04F
BELLEVILLE     PTSUNNY   73  62  66 SE6       30.03S
CAHOKIA*       PTSUNNY   73  59  61 SE12      30.03F
SPARTA*        PTSUNNY   71  60  67 SE3       30.05F
$$

ILZ064>066-069>071-074>076-080>082-084>086-088>090-092>094-032000-
SOUTH-CENTRAL ILLINOIS

CITY           SKY/WX    TMP DP  RH WIND       PRES   REMARKS
CARBONDALE     SUNNY     74  57  55 S5        30.03F
MARION         MOSUNNY   73  57  56 MISG      30.05F
MT. VERNON     MOSUNNY   72  57  60 CALM      30.06S
SALEM*         SUNNY     73  59  61 S6        30.05F
$$

ILZ067-068-072-073-078-083-087-091-032000-
SOUTHEAST ILLINOIS

CITY           SKY/WX    TMP DP  RH WIND       PRES   REMARKS
LAWRENCEVILLE  PTSUNNY   70  55  59 E6        30.05F
FLORA*         SUNNY     70  58  66 CALM      30.05F
HARRISBURG*    SUNNY     74  56  54 SE5       30.05F
ROBINSON*      MOSUNNY   70  54  56 E3        30.06F
$$

ABBREVIATIONS USED IN REMARKS
   TC - TEMPERATURE IN CELSIUS
  WCI - WIND CHILL INDEX
   HX - HEAT INDEX
  VSB - VISIBILITY
$$



USA.gov is the U.S. government's official web portal to all federal, state and local government web resources and services.